Location: Crescent
(42.8242°N, 73.7329°W)
Time: 15:41:57
(UTC+00:00)

A-11 Canister half - Pass Details

Date: 22 February 2026
Orbit: 1525 x 1683 km, 47.3° (Epoch: 9 March)

Event Time Altitude Azimuth Distance (km) Brightness Sun altitude
Rises 04:10:00 0° 292° (WNW) 4,679 11.9 -55.0°
Reaches altitude 10° 04:13:51 10° 278° (W) 3,701 11.2 -55.3°
Enters shadow 04:13:51 10° 278° (W) 3,701 11.2 -55.3°
